Wetterstats.de || Aktuelle Messwerte || Aktuelle Wetterkarten NEU! || Radar / Satellit NEU! || Wetterarchiv || Langzeitwerte NEU! || Klim. Kenntage || Met. Ereignisse || Agrarwerte || Echtzeitwerte

Monatsübersicht für September 2020 Diagramm
 
Wetter Information zur Wetteranzeige
Zeitraffer
Tageslänge (hh:mm)
Höchsttemperatur in °C
Uhrzeit
Tiefsttemperatur in °C
Uhrzeit
Luftfeuchte (max., in %)
Uhrzeit
Luftfeuchte (min., in %)
Uhrzeit
Luftdruck (max., in hPa)
Uhrzeit
Luftdruck (min., in hPa)
Uhrzeit
Luftdruck (Ø, in hPa)
Regenrate (max, mm/h)
Uhrzeit
Niederschlag in mm
Verdunstung in mm
Solar in W/m² (Ø)
Solar in W/m² (max.)
UV-Index (max.)
Sonnenscheindauer (hh:mm)
Windrichtung (Ø)
Windstärke (Ø in km/h)
Windstärke (Ø in bft)
Windböe (max., in km/h)
Uhrzeit
Windböe (max., in bft)
Uhrzeit
Taupunkt (max., in °C)
Uhrzeit
Taupunkt (min., in °C)
Uhrzeit
Windchill (min., in °C)
Uhrzeit
Gewitterindex (max.)
Uhrzeit
Waldbrandindex (max.)
Uhrzeit
Graslandfeuerindex (max.)
Uhrzeit
Staubsturm-Index (max.)
Uhrzeit
01
Zeitraffer
13:40
19.7
11:00 Uhr
11.3
04:50 Uhr

93
04:25 Uhr
45
16:10 Uhr
1018.7
12:35 Uhr

1016.7
16:40 Uhr
1017.8
0,000
00:00 Uhr
0,000
2.337
245
749
13:55 Uhr
4.2
13:55 Uhr

03:20:00
4,1
1
22,5
10:45 Uhr

4
12.8
09:35 Uhr
6.8
16:25 Uhr
11.3
04:50 Uhr
4
00:00 Uhr
0.0
00:00 Uhr
3.0
16:05 Uhr
0.0
00:00 Uhr
02
Zeitraffer
13:35
18.3
15:00 Uhr
10.8
04:45 Uhr

93
21:10 Uhr
70
15:20 Uhr
1017.8
22:05 Uhr

1015.9
06:15 Uhr
1016.7
16,800
13:25 Uhr
4,400
1.499
187
872
14:15 Uhr
4.2
14:45 Uhr

02:01:00
3,8
1
25,7
13:10 Uhr

4
14.4
17:15 Uhr
9.4
04:15 Uhr
10.8
04:45 Uhr
6
20:30 Uhr
0.0
00:00 Uhr
2.9
11:10 Uhr
0.0
00:00 Uhr
03
Zeitraffer
13:32
22.4
15:00 Uhr
12.8
07:30 Uhr

94
03:50 Uhr
43
16:45 Uhr
1019.9
12:20 Uhr

1017.5
02:15 Uhr
1018.8
2,400
01:45 Uhr
1,400
3.099
334
788
12:45 Uhr
4.8
13:05 Uhr

07:21:00
5,9
1
30,6
22:00 Uhr

5
13.7
23:45 Uhr
9.2
15:40 Uhr
12.8
07:30 Uhr
7
22:50 Uhr
0.0
00:00 Uhr
2.5
15:10 Uhr
0.0
00:00 Uhr
04
Zeitraffer
13:28
22.4
17:00 Uhr
15.3
00:50 Uhr

96
04:00 Uhr
62
17:10 Uhr
1020.9
11:10 Uhr

1017.7
05:25 Uhr
1019.4
2,400
00:00 Uhr
3,000
1.778
195
816
13:50 Uhr
4.8
13:00 Uhr

02:41:00
5,8
1
24,1
05:15 Uhr

4
17.4
14:00 Uhr
13.7
00:05 Uhr
13.3
03:40 Uhr
11
22:25 Uhr
0.0
00:00 Uhr
2.2
17:25 Uhr
0.0
00:00 Uhr
05
Zeitraffer
13:23
18.3
04:00 Uhr
11.8
23:05 Uhr

94
02:10 Uhr
69
16:40 Uhr
1018.5
00:00 Uhr

1014.6
07:10 Uhr
1016.4
2,400
09:40 Uhr
0,400
0.914
89
413
14:35 Uhr
3.7
14:35 Uhr

00:08:00
4,3
1
29,0
08:10 Uhr

4
16.7
03:40 Uhr
10.5
23:00 Uhr
11.8
23:05 Uhr
11
03:25 Uhr
0.0
00:00 Uhr
1.2
00:00 Uhr
0.0
00:00 Uhr
06
Zeitraffer
13:20
19.7
17:00 Uhr
10.1
06:55 Uhr

95
06:55 Uhr
44
16:20 Uhr
1020.0
22:30 Uhr

1017.1
00:00 Uhr
1018.3
0,000
00:00 Uhr
0,000
3.023
322
779
14:05 Uhr
4.8
13:10 Uhr

08:26:00
5,7
1
30,6
12:35 Uhr

5
11.9
01:35 Uhr
7.0
16:20 Uhr
10.1
06:55 Uhr
4
00:30 Uhr
0.9
17:05 Uhr
3.2
16:05 Uhr
0.0
00:00 Uhr
07
Zeitraffer
13:16
20.3
15:00 Uhr
10.9
23:55 Uhr

90
05:30 Uhr
44
16:35 Uhr
1025.1
23:05 Uhr

1020.0
00:00 Uhr
1022.7
0,000
00:00 Uhr
0,000
2.921
334
901
13:30 Uhr
4.8
13:30 Uhr

06:29:00
4,3
1
35,4
16:10 Uhr

5
12.0
11:10 Uhr
7.4
16:35 Uhr
10.9
23:55 Uhr
2
00:00 Uhr
1.4
17:05 Uhr
3.5
16:55 Uhr
0.3
16:15 Uhr
08
Zeitraffer
13:11
23.4
15:00 Uhr
9.2
04:00 Uhr

90
04:00 Uhr
45
15:10 Uhr
1025.2
00:10 Uhr

1022.9
14:30 Uhr
1024.2
0,000
00:00 Uhr
0,000
2.794
258
796
13:40 Uhr
5.6
13:45 Uhr

04:50:00
6,2
1
32,2
11:00 Uhr

5
14.8
22:50 Uhr
7.6
03:30 Uhr
9.2
04:00 Uhr
8
20:15 Uhr
2.5
15:00 Uhr
3.9
14:40 Uhr
1.7
15:30 Uhr
09
Zeitraffer
13:08
25.8
16:00 Uhr
14.4
06:30 Uhr

94
06:55 Uhr
54
15:55 Uhr
1024.8
00:15 Uhr

1016.1
20:55 Uhr
1020.2
0,000
00:00 Uhr
0,000
2.540
230
798
13:30 Uhr
5.2
13:00 Uhr

03:27:00
6,0
1
35,4
22:55 Uhr

5
17.3
23:35 Uhr
13.3
06:30 Uhr
14.4
06:30 Uhr
11
22:55 Uhr
2.4
16:20 Uhr
3.9
16:20 Uhr
1.3
17:05 Uhr
10
Zeitraffer
13:03
19.2
00:00 Uhr
9.8
23:35 Uhr

93
07:00 Uhr
47
14:35 Uhr
1022.6
10:55 Uhr

1016.6
00:00 Uhr
1020.6
2,400
00:20 Uhr
0,400
2.489
259
826
13:35 Uhr
4.9
13:15 Uhr

04:44:00
6,3
1
35,4
01:45 Uhr

5
17.5
00:10 Uhr
7.5
13:15 Uhr
9.8
23:35 Uhr
12
00:05 Uhr
2.2
14:15 Uhr
4.0
15:05 Uhr
0.7
15:10 Uhr
11
Zeitraffer
12:59
23.2
14:00 Uhr
7.7
03:15 Uhr

93
03:00 Uhr
39
13:40 Uhr
1020.5
00:00 Uhr

1016.7
19:30 Uhr
1018.5
0,000
00:00 Uhr
0,000
3.124
344
621
13:35 Uhr
3.9
12:50 Uhr

09:36:00
2,4
1
19,3
11:40 Uhr

3
11.3
20:15 Uhr
6.4
02:50 Uhr
7.7
03:15 Uhr
3
20:05 Uhr
2.4
15:00 Uhr
4.2
16:00 Uhr
0.2
14:10 Uhr
12
Zeitraffer
12:56
27.1
17:00 Uhr
8.6
07:00 Uhr

92
06:05 Uhr
39
16:30 Uhr
1022.2
23:15 Uhr

1016.9
01:00 Uhr
1018.2
0,000
00:00 Uhr
0,000
3.581
328
598
12:40 Uhr
3.8
12:40 Uhr

09:19:00
5,6
1
33,8
14:25 Uhr

5
13.8
17:40 Uhr
7.3
07:00 Uhr
8.6
07:00 Uhr
7
20:05 Uhr
2.7
16:40 Uhr
4.5
17:00 Uhr
1.9
15:15 Uhr
13
Zeitraffer
12:51
24.4
17:00 Uhr
11.2
06:40 Uhr

91
06:45 Uhr
46
16:25 Uhr
1026.9
23:55 Uhr

1022.1
00:00 Uhr
1025.2
0,000
00:00 Uhr
0,000
3.200
291
605
13:00 Uhr
4.2
13:00 Uhr

07:39:00
3,8
1
27,4
15:45 Uhr

4
13.6
20:20 Uhr
9.6
06:40 Uhr
11.2
06:40 Uhr
7
20:00 Uhr
2.8
16:20 Uhr
4.9
15:55 Uhr
1.8
15:45 Uhr
14
Zeitraffer
12:47
32.0
16:00 Uhr
11.1
06:45 Uhr

92
06:10 Uhr
37
14:00 Uhr
1029.0
11:10 Uhr

1025.2
23:55 Uhr
1027.0
0,000
00:00 Uhr
0,000
3.251
329
598
13:05 Uhr
4.0
12:51 Uhr

09:56:00
1,7
0
14,5
13:20 Uhr

3
16.7
16:10 Uhr
9.9
06:35 Uhr
11.1
06:45 Uhr
10
20:00 Uhr
3.5
16:55 Uhr
5.9
15:00 Uhr
1.9
15:20 Uhr
15
Zeitraffer
12:44
31.7
16:00 Uhr
15.0
07:10 Uhr

92
07:15 Uhr
41
16:10 Uhr
1025.2
00:00 Uhr

1018.2
23:45 Uhr
1021.8
0,000
00:00 Uhr
0,000
3.505
323
571
12:55 Uhr
3.9
12:55 Uhr

09:46:00
3,5
1
24,1
14:00 Uhr

4
18.1
14:45 Uhr
13.5
07:10 Uhr
15.0
07:10 Uhr
10
19:55 Uhr
4.3
17:05 Uhr
5.9
00:00 Uhr
2.8
14:35 Uhr


 
Wetter Information zur Wetteranzeige
Zeitraffer
Tageslänge (hh:mm)
Höchsttemperatur in °C
Uhrzeit
Tiefsttemperatur in °C
Uhrzeit
Luftfeuchte (max., in %)
Uhrzeit
Luftfeuchte (min., in %)
Uhrzeit
Luftdruck (max., in hPa)
Uhrzeit
Luftdruck (min., in hPa)
Uhrzeit
Luftdruck (Ø, in hPa)
Regenrate (max, mm/h)
Uhrzeit
Niederschlag in mm
Verdunstung in mm
Solar in W/m² (Ø)
Solar in W/m² (max.)
UV-Index (max.)
Sonnenscheindauer (hh:mm)
Windrichtung (Ø)
Windstärke (Ø in km/h)
Windstärke (Ø in bft)
Windböe (max., in km/h)
Uhrzeit
Windböe (max., in bft)
Uhrzeit
Taupunkt (max., in °C)
Uhrzeit
Taupunkt (min., in °C)
Uhrzeit
Windchill (min., in °C)
Uhrzeit
Gewitterindex (max.)
Uhrzeit
Waldbrandindex (max.)
Uhrzeit
Graslandfeuerindex (max.)
Uhrzeit
Staubsturm-Index (max.)
Uhrzeit
16
Zeitraffer
12:39
29.9
16:00 Uhr
14.8
06:50 Uhr

91
06:55 Uhr
36
16:25 Uhr
1020.1
23:35 Uhr

1016.0
17:55 Uhr
1017.1
0,000
00:00 Uhr
0,000
3.480
305
575
12:55 Uhr
3.9
12:45 Uhr

07:46:00
4,7
1
29,0
15:30 Uhr

4
17.8
12:35 Uhr
12.7
16:35 Uhr
14.8
06:50 Uhr
11
21:25 Uhr
4.2
16:15 Uhr
5.9
00:00 Uhr
3.3
21:55 Uhr
17
Zeitraffer
12:35
20.1
15:00 Uhr
10.3
23:50 Uhr

83
06:25 Uhr
35
15:00 Uhr
1030.8
23:00 Uhr

1020.3
00:00 Uhr
1026.9
0,000
00:00 Uhr
0,000
3.606
342
595
13:00 Uhr
4.1
13:00 Uhr

09:21:00
7,7
2
29,0
09:25 Uhr

4
14.3
00:05 Uhr
3.2
17:15 Uhr
10.3
23:50 Uhr
8
00:00 Uhr
3.9
17:00 Uhr
5.9
00:00 Uhr
3.4
10:50 Uhr
18
Zeitraffer
12:31
21.1
16:00 Uhr
5.1
06:40 Uhr

89
06:50 Uhr
32
14:25 Uhr
1031.4
10:55 Uhr

1027.2
23:20 Uhr
1029.5
0,000
00:00 Uhr
0,000
3.099
348
606
12:45 Uhr
4.5
12:45 Uhr

10:23:00
2,6
1
20,9
14:30 Uhr

4
8.3
09:50 Uhr
2.9
14:25 Uhr
5.1
06:40 Uhr
0
00:00 Uhr
4.8
16:00 Uhr
5.9
00:00 Uhr
2.3
14:35 Uhr
19
Zeitraffer
12:27
21.7
15:00 Uhr
5.5
07:10 Uhr

87
07:10 Uhr
35
14:45 Uhr
1027.3
00:05 Uhr

1021.1
19:00 Uhr
1023.9
0,000
00:00 Uhr
0,000
3.226
313
628
12:45 Uhr
4.2
12:45 Uhr

09:36:00
4,9
1
24,1
14:25 Uhr

4
7.2
09:20 Uhr
3.5
07:05 Uhr
5.5
07:10 Uhr
0
00:00 Uhr
4.8
15:05 Uhr
5.9
00:00 Uhr
2.9
12:20 Uhr
20
Zeitraffer
12:23
22.9
13:00 Uhr
9.0
07:10 Uhr

79
07:05 Uhr
37
15:00 Uhr
1021.5
00:05 Uhr

1018.6
19:05 Uhr
1019.9
0,000
00:00 Uhr
0,000
3.277
311
654
12:50 Uhr
4.0
12:55 Uhr

09:02:00
5,8
1
25,7
15:30 Uhr

4
9.3
12:25 Uhr
5.4
07:00 Uhr
9.0
07:10 Uhr
0
00:00 Uhr
4.8
15:25 Uhr
5.9
00:00 Uhr
2.7
14:50 Uhr
21
Zeitraffer
12:19
26.6
16:00 Uhr
7.8
07:05 Uhr

86
06:45 Uhr
36
15:50 Uhr
1019.5
00:05 Uhr

1015.1
23:55 Uhr
1017.9
0,000
00:00 Uhr
0,000
3.124
321
563
12:55 Uhr
3.7
12:45 Uhr

09:25:00
3,3
1
19,3
13:05 Uhr

3
11.7
12:10 Uhr
5.4
07:05 Uhr
7.8
07:05 Uhr
3
12:10 Uhr
4.9
16:05 Uhr
5.9
00:00 Uhr
2.3
13:05 Uhr
22
Zeitraffer
12:15
26.8
16:00 Uhr
10.5
06:25 Uhr

90
06:30 Uhr
37
16:40 Uhr
1015.1
00:00 Uhr

1007.3
23:55 Uhr
1011.3
0,000
00:00 Uhr
0,000
2.972
310
544
12:45 Uhr
3.3
12:30 Uhr

09:16:00
2,5
1
19,3
14:20 Uhr

3
13.7
11:45 Uhr
8.7
05:55 Uhr
10.5
06:25 Uhr
7
19:40 Uhr
5.8
17:05 Uhr
5.9
00:00 Uhr
2.4
13:45 Uhr
23
Zeitraffer
12:10
27.3
14:00 Uhr
12.6
07:20 Uhr

89
07:10 Uhr
39
14:30 Uhr
1007.3
00:00 Uhr

1004.2
19:10 Uhr
1005.4
0,000
00:00 Uhr
0,000
2.769
276
596
13:20 Uhr
3.2
12:50 Uhr

07:21:00
2,2
1
22,5
14:40 Uhr

4
14.8
10:55 Uhr
10.8
06:50 Uhr
12.6
07:20 Uhr
6
01:20 Uhr
5.6
14:40 Uhr
5.9
00:00 Uhr
2.5
14:40 Uhr
24
Zeitraffer
12:07
22.4
15:00 Uhr
13.1
23:40 Uhr

86
03:15 Uhr
47
15:20 Uhr
1005.7
15:20 Uhr

1002.8
07:55 Uhr
1004.2
0,000
00:00 Uhr
0,000
2.134
192
578
11:00 Uhr
2.9
13:55 Uhr

02:57:00
4,4
1
37,0
15:25 Uhr

5
14.1
12:50 Uhr
9.2
22:20 Uhr
13.1
23:40 Uhr
5
00:10 Uhr
5.2
15:45 Uhr
5.9
00:00 Uhr
3.4
15:25 Uhr
25
Zeitraffer
12:03
15.3
18:00 Uhr
10.6
22:20 Uhr

96
09:40 Uhr
72
17:15 Uhr
1003.1
00:00 Uhr

996.5
08:55 Uhr
997.9
12,000
05:10 Uhr
9,200
0.584
78
318
16:50 Uhr
1.2
13:55 Uhr

00:26:00
3,1
1
29,0
04:45 Uhr

4
13.5
14:00 Uhr
9.5
22:20 Uhr
10.6
22:20 Uhr
4
04:35 Uhr
4.0
00:00 Uhr
5.9
00:00 Uhr
2.2
04:50 Uhr
26
Zeitraffer
11:58
11.8
03:00 Uhr
9.2
23:35 Uhr

95
17:35 Uhr
85
11:15 Uhr
997.5
00:15 Uhr

989.1
18:00 Uhr
994.6
7,200
17:30 Uhr
14,800
0.305
39
105
10:50 Uhr
0.7
10:50 Uhr

00:00:00
7,6
2
37,0
15:00 Uhr

5
10.2
01:15 Uhr
8.2
08:45 Uhr
2.5
15:00 Uhr
2
00:00 Uhr
0.0
00:00 Uhr
0.7
03:15 Uhr
0.0
00:00 Uhr
27
Zeitraffer
11:55
12.7
15:00 Uhr
6.8
04:40 Uhr

94
00:00 Uhr
70
14:35 Uhr
1009.4
23:50 Uhr

997.7
00:00 Uhr
1003.9
0,000
00:00 Uhr
0,000
0.838
137
395
14:10 Uhr
2.3
12:50 Uhr

00:54:00
2,6
1
19,3
02:30 Uhr

3
9.9
19:45 Uhr
5.9
04:40 Uhr
5.1
02:30 Uhr
2
19:25 Uhr
0.0
00:00 Uhr
0.0
00:00 Uhr
0.0
00:00 Uhr
28
Zeitraffer
11:51
19.6
15:00 Uhr
8.2
07:30 Uhr

93
06:55 Uhr
48
15:35 Uhr
1014.5
23:20 Uhr

1009.1
02:40 Uhr
1011.5
0,000
00:00 Uhr
0,000
2.337
298
614
13:22 Uhr
3.1
13:27 Uhr

08:27:00
3,1
1
22,5
15:25 Uhr

4
9.8
10:55 Uhr
7.2
06:50 Uhr
8.2
07:30 Uhr
2
00:00 Uhr
0.0
00:00 Uhr
0.2
14:40 Uhr
0.0
00:00 Uhr
29
Zeitraffer
11:46
19.1
17:00 Uhr
10.8
23:50 Uhr

90
23:45 Uhr
53
15:05 Uhr
1017.8
21:50 Uhr

1014.4
02:40 Uhr
1016.0
0,000
00:00 Uhr
0,000
1.295
163
509
14:40 Uhr
2.3
12:50 Uhr

02:30:00
1,4
0
14,5
16:25 Uhr

3
11.5
10:55 Uhr
9.0
12:45 Uhr
10.8
23:50 Uhr
2
00:00 Uhr
0.0
00:00 Uhr
1.2
16:05 Uhr
0.0
00:00 Uhr
30
Zeitraffer
11:42
22.3
16:00 Uhr
7.5
07:15 Uhr

95
06:40 Uhr
39
15:30 Uhr
1017.5
00:25 Uhr

1013.4
23:45 Uhr
1016.0
0,000
00:00 Uhr
0,000
2.184
300
512
12:40 Uhr
3.0
12:45 Uhr

09:33:00
1,6
0
12,9
12:30 Uhr

2
13.4
10:35 Uhr
6.6
07:15 Uhr
7.5
07:15 Uhr
5
19:20 Uhr
3.0
16:05 Uhr
4.4
16:00 Uhr
0.1
14:25 Uhr
Stationsstandorte || Wetterblog || Wissenswertes || Downloads || Seitenhistorie || Partner || Impressum / Datenschutz